Ocala, FL

3:17 AM EDT on July 27, 2017 (GMT -0400)
Ocala Regional-Taylor

Weather History for KOCF - November, 2012

Change the Weather History Date:

Friday, November 9, 2012

  Actual Average Record
Temperature  
Mean Temperature 53 °F -  
Max Temperature 71 °F 74 °F 84 °F (2000)
Min Temperature 35 °F 52 °F 35 °F (1996)
Degree Days  
Heating Degree Days 12    
Growing Degree Days 3 (Base 50)    
Moisture  
Dew Point 34 °F    
Average Humidity 67    
Maximum Humidity 87    
Minimum Humidity 22    
Precipitation  
Precipitation 0.00 in - - ()
Sea Level Pressure  
Sea Level Pressure 30.25 in    
Wind  
Wind Speed 1 mph (NNE)    
Max Wind Speed 8 mph    
Max Gust Speed -    
Visibility 10 miles    
Events      
Averages and records for this station are not official NWS values.
T = Trace of Precipitation, MM = Missing Value Source: NWS Daily Summary

Daily Weather History Graph

Daily Weather History Graph

Search for Another Location

Airport or City:

Trip Planner

Search our weather history database for the weather conditions in past years. The results will help you decide how hot, cold, wet, or windy it might be!

Date:

Astronomy

Nov. 09, 2012 Rise Set
Actual Time 6:48 AM EST 5:37 PM EST
Civil Twilight 6:23 AM EST 6:01 PM EST
Nautical Twilight 5:54 AM EST 6:30 PM EST
Astronomical Twilight 5:26 AM EST 6:58 PM EST
Moon 2:06 AM EST (11/9) 2:31 PM EST (11/9)
Length of Visible Light 11h 38m
Length of Day
10h 48m
Waning Crescent, 23% of the Moon is Illuminated
Nov 9
Waning Crescent
Nov 13
New
Nov 20
First Quarter
Nov 28
Full
Dec 6
Last Quarter

Hourly Weather History & Observations

Time (EST) Temp. Windchill Dew Point Humidity Pressure Visibility Wind Dir Wind Speed Gust Speed Precip Events Conditions
12:15 AM 41.0 °F - 35.6 °F 81% 30.21 in 10.0 mi Calm Calm - N/A   Clear
12:35 AM 41.0 °F - 35.6 °F 81% 30.21 in 10.0 mi Calm Calm - N/A   Clear
12:55 AM 39.2 °F - 35.6 °F 87% 30.21 in 10.0 mi Calm Calm - N/A   Clear
1:15 AM 39.2 °F - 35.6 °F 87% 30.20 in 10.0 mi Calm Calm - N/A   Clear
1:35 AM 39.2 °F - 35.6 °F 87% 30.21 in 10.0 mi Calm Calm - N/A   Clear
1:55 AM 39.2 °F - 35.6 °F 87% 30.21 in 10.0 mi Calm Calm - N/A   Clear
2:15 AM 39.2 °F - 33.8 °F 81% 30.21 in 10.0 mi Calm Calm - N/A   Clear
2:35 AM 37.4 °F - 33.8 °F 87% 30.21 in 10.0 mi Calm Calm - N/A   Clear
2:55 AM 37.4 °F - 33.8 °F 87% 30.21 in 10.0 mi Calm Calm - N/A   Clear
3:15 AM 37.4 °F 34.9 °F 33.8 °F 87% 30.21 in 10.0 mi North 3.5 mph - N/A   Clear
3:35 AM 37.4 °F - 33.8 °F 87% 30.21 in 10.0 mi Calm Calm - N/A   Clear
3:55 AM 37.4 °F - 32.0 °F 81% 30.21 in 10.0 mi Calm Calm - N/A   Clear
4:15 AM 37.4 °F - 32.0 °F 81% 30.22 in 10.0 mi Calm Calm - N/A   Clear
4:35 AM 35.6 °F - 32.0 °F 87% 30.22 in 10.0 mi Calm Calm - N/A   Clear
4:55 AM 35.6 °F - 32.0 °F 87% 30.23 in 10.0 mi Calm Calm - N/A   Clear
5:15 AM 35.6 °F - 30.2 °F 81% 30.24 in 10.0 mi Calm Calm - N/A   Clear
5:35 AM 35.6 °F - 30.2 °F 81% 30.24 in 10.0 mi Calm Calm - N/A   Clear
5:55 AM 35.6 °F - 30.2 °F 81% 30.24 in 10.0 mi Calm Calm - N/A   Clear
6:15 AM 35.6 °F - 30.2 °F 81% 30.25 in 10.0 mi Calm Calm - N/A   Clear
6:50 AM 35.6 °F - 30.2 °F 81% 30.26 in 10.0 mi Calm Calm - N/A   Clear
7:50 AM 37.4 °F - 32.0 °F 81% 30.28 in 10.0 mi Calm Calm - N/A   Clear
8:50 AM 55.4 °F - 41.0 °F 58% 30.29 in 10.0 mi North 3.5 mph - N/A   Clear
9:50 AM 62.6 °F - 39.2 °F 42% 30.31 in 10.0 mi NE 5.8 mph - N/A   Clear
10:50 AM 64.4 °F - 37.4 °F 37% 30.31 in 10.0 mi NE 6.9 mph - N/A   Clear
11:50 AM 68.0 °F - 35.6 °F 30% 30.30 in 10.0 mi NE 8.1 mph - N/A   Clear
12:50 PM 69.8 °F - 32.0 °F 25% 30.26 in 10.0 mi ENE 5.8 mph - N/A   Clear
1:50 PM 71.6 °F - 32.0 °F 23% 30.24 in 10.0 mi East 3.5 mph - N/A   Clear
2:50 PM 71.6 °F - 30.2 °F 22% 30.22 in 10.0 mi NNE 4.6 mph - N/A   Clear
3:50 PM 71.6 °F - 33.8 °F 25% 30.21 in 10.0 mi East 3.5 mph - N/A   Clear
4:50 PM 69.8 °F - 30.2 °F 23% 30.22 in 10.0 mi NNE 4.6 mph - N/A   Clear
5:50 PM 60.8 °F - 33.8 °F 36% 30.22 in 10.0 mi NE 3.5 mph - N/A   Clear
7:55 PM 51.8 °F - 35.6 °F 54% 30.25 in 10.0 mi Calm Calm - N/A   Clear
8:15 PM 50.0 °F - 35.6 °F 58% 30.26 in 10.0 mi Calm Calm - N/A   Clear
8:35 PM 48.2 °F - 37.4 °F 66% 30.27 in 10.0 mi Calm Calm - N/A   Clear
8:55 PM 48.2 °F - 35.6 °F 62% 30.27 in 10.0 mi Calm Calm - N/A   Clear
9:15 PM 46.4 °F - 35.6 °F 66% 30.27 in 10.0 mi Calm Calm - N/A   Clear
9:35 PM 46.4 °F 45.2 °F 35.6 °F 66% 30.28 in 10.0 mi North 3.5 mph - N/A   Clear
9:55 PM 46.4 °F 45.2 °F 35.6 °F 66% 30.28 in 10.0 mi North 3.5 mph - N/A   Clear
10:15 PM 44.6 °F 43.1 °F 35.6 °F 71% 30.28 in 10.0 mi North 3.5 mph - N/A   Clear
10:35 PM 44.6 °F - 35.6 °F 71% 30.28 in 10.0 mi Calm Calm - N/A   Clear
10:55 PM 44.6 °F 43.1 °F 35.6 °F 71% 30.28 in 10.0 mi North 3.5 mph - N/A   Clear
11:15 PM 42.8 °F 41.1 °F 35.6 °F 76% 30.28 in 10.0 mi North 3.5 mph - N/A   Clear
11:35 PM 42.8 °F 40.1 °F 35.6 °F 76% 30.28 in 10.0 mi North 4.6 mph - N/A   Clear
11:55 PM 42.8 °F 40.1 °F 35.6 °F 76% 30.27 in 10.0 mi North 4.6 mph - N/A   Clear